Location: Manning Provincial Park
(49.0805°N, 120.7632°W)
Time: 23:45:55
(UTC-08:00)

Envisat - Visible Passes

Search period start: 09 December 2019 00:00
Search period end: 19 December 2019 00:00
Orbit: 764 x 766 km, 98.1° (Epoch: 10 December)

Date Brightness Start Highest point End Pass type
(mag) Time Alt. Az. Time Alt. Az. Time Alt. Az.
09 Dec 5.9 05:40:08 10° NE 05:43:28 17° E 05:46:46 10° SE visible
09 Dec 3.6 16:58:13 10° SE 17:02:46 34° ENE 17:07:20 10° N visible
09 Dec 4.5 18:37:03 10° SSW 18:41:45 37° W 18:46:29 10° NNW visible
10 Dec 3.8 06:41:13 10° NNE 06:46:15 56° E 06:51:14 10° S visible
10 Dec 3.1 17:59:45 10° S 18:04:50 76° WSW 18:09:57 10° NNW visible
10 Dec 6.2 19:43:17 10° W 19:44:44 11° W 19:46:11 10° WNW visible
11 Dec 5.2 06:04:52 10° NE 06:09:14 28° E 06:13:34 10° SSE visible
11 Dec 3.1 17:23:10 10° SE 17:28:07 54° ENE 17:33:05 10° N visible
11 Dec 5.3 19:03:28 10° SW 19:07:28 23° W 19:11:30 10° NW visible
12 Dec 6.1 05:29:26 10° NE 05:32:02 14° E 05:34:37 10° ESE visible
12 Dec 3.1 07:06:39 10° NNE 07:11:47 89° WNW 07:16:52 10° SSW visible
12 Dec 3.8 16:47:17 10° ESE 16:51:35 29° ENE 16:55:53 10° N visible
12 Dec 4.0 18:25:32 10° S 18:30:24 46° W 18:35:19 10° NNW visible
13 Dec 4.2 06:30:01 10° NNE 06:34:55 46° E 06:39:47 10° S visible
13 Dec 2.9 17:48:28 10° SSE 17:53:33 88° ENE 17:58:40 10° NNW visible
13 Dec 6.0 19:30:39 10° WSW 19:33:17 14° W 19:35:56 10° NW visible
14 Dec 5.5 05:53:50 10° NE 05:57:51 23° E 06:01:50 10° SE visible
14 Dec 3.3 17:12:05 10° SE 17:16:53 45° ENE 17:21:43 10° N visible
14 Dec 5.0 18:51:43 10° SSW 18:56:05 28° W 19:00:27 10° NW visible
15 Dec 6.3 05:19:12 10° ENE 05:20:35 11° E 05:21:57 10° E visible
15 Dec 3.3 06:55:22 10° NNE 07:00:29 76° ESE 07:05:34 10° S visible
15 Dec 4.0 16:36:24 10° ESE 16:40:24 24° ENE 16:44:25 10° N visible
15 Dec 3.6 18:14:05 10° S 18:19:05 57° W 18:24:06 10° NNW visible
16 Dec 4.7 06:18:51 10° NNE 06:23:34 37° E 06:28:15 10° SSE visible
16 Dec 2.9 17:37:14 10° SSE 17:42:17 72° ENE 17:47:22 10° N visible
16 Dec 5.7 19:18:31 10° SW 19:21:51 17° W 19:25:12 10° NW visible
17 Dec 5.8 05:42:54 10° NE 05:46:27 19° E 05:49:58 10° SE visible
17 Dec 3.5 17:01:03 10° SE 17:05:40 37° ENE 17:10:19 10° N visible
17 Dec 4.6 18:40:06 10° SSW 18:44:43 35° W 18:49:22 10° NNW visible
18 Dec 3.6 06:44:07 10° NNE 06:49:11 61° E 06:54:13 10° S visible
18 Dec 3.3 18:02:43 10° S 18:07:46 71° WSW 18:12:52 10° NNW visible
18 Dec 6.3 19:47:26 10° W 19:47:44 10° W 19:48:02 10° W visible
